User: anonymous   Login
Location: Albany
(35.0000°S, 118.0000°E)
Time: 04:27:01
(UTC-05:00)
Language:

ERS-1 Rocket - Orbit

View from above orbital plane
View from above orbital plane
View from above satellite
View from above satellite

Ground track
Ground track

The orbit data is extracted from the following two-line orbital elements,

1 21610U 91050F   17053.17243615 -.00000001  00000-0  13808-4 0  9996
2 21610  98.6214 108.9382 0002070 292.4096 131.6086 14.40782221343550
Epoch (UTC): 22 February 2017 04:08:18
Eccentricity: 0.0002070
inclination: 98.6214°
perigee height: 754 km
apogee height: 757 km
right ascension of ascending node: 108.9382°
argument of perigee: 292.4096°
revolutions per day: 14.40782221
mean anomaly at epoch: 131.6086°
orbit number at epoch: 34355

The dashed part of the orbit path shows where the satellite is in the earth's shadow,  

DLR